Time,TemperatureF,DewpointF,PressureIn,WindDirection,WindDirectionDegrees,WindSpeedMPH,WindSpeedGustMPH,Humidity,HourlyPrecipIn,Conditions,Clouds,dailyrainin,SoftwareType,DateUTC
2013-06-04 00:02:00,49.0,37.0,29.91,NNE,29,0.0,0.0,62,0.00,,,0.00,,2013-06-04 06:02:00,
2013-06-04 00:12:00,49.0,37.0,29.91,NNE,29,0.0,0.0,62,0.00,,,0.00,,2013-06-04 06:12:00,
2013-06-04 00:22:00,49.0,37.0,29.91,NNE,29,0.0,3.0,62,0.00,,,0.00,,2013-06-04 06:22:00,
2013-06-04 00:32:00,48.0,37.0,29.92,NNE,29,0.0,6.0,65,0.00,,,0.00,,2013-06-04 06:32:00,
2013-06-04 00:42:00,48.0,37.0,29.92,NNE,29,0.0,6.0,65,0.00,,,0.00,,2013-06-04 06:42:00,
2013-06-04 00:52:00,48.0,37.0,29.92,NNE,29,0.0,1.0,65,0.00,,,0.00,,2013-06-04 06:52:00,
2013-06-04 01:02:00,48.0,36.0,29.93,NNE,29,0.0,4.0,63,0.00,,,0.00,,2013-06-04 07:02:00,
2013-06-04 01:12:00,48.0,36.0,29.93,NNE,29,0.0,4.0,63,0.00,,,0.00,,2013-06-04 07:12:00,
2013-06-04 01:22:00,49.0,36.0,29.94,NNE,29,0.0,6.0,61,0.00,,,0.00,,2013-06-04 07:22:00,
2013-06-04 01:32:00,49.0,36.0,29.94,NNE,29,0.0,0.0,60,0.00,,,0.00,,2013-06-04 07:32:00,
2013-06-04 01:42:00,49.0,36.0,29.94,NNE,29,0.0,0.0,60,0.00,,,0.00,,2013-06-04 07:42:00,
2013-06-04 01:52:00,48.0,35.0,29.94,NNE,29,0.0,2.0,61,0.00,,,0.00,,2013-06-04 07:52:00,
2013-06-04 02:02:00,48.0,35.0,29.95,NNE,29,0.0,2.0,61,0.00,,,0.00,,2013-06-04 08:02:00,
2013-06-04 02:12:00,48.0,35.0,29.95,NNE,29,0.0,2.0,61,0.00,,,0.00,,2013-06-04 08:12:00,
2013-06-04 02:22:00,48.0,35.0,29.95,NNE,29,1.0,8.0,61,0.00,,,0.00,,2013-06-04 08:22:00,
2013-06-04 02:32:00,48.0,35.0,29.96,NNE,29,0.0,6.0,61,0.00,,,0.00,,2013-06-04 08:32:00,
2013-06-04 02:42:00,48.0,35.0,29.96,NNE,29,0.0,6.0,61,0.00,,,0.00,,2013-06-04 08:42:00,
2013-06-04 02:52:00,48.0,35.0,29.96,NNE,29,0.0,7.0,61,0.00,,,0.00,,2013-06-04 08:52:00,
2013-06-04 03:02:00,48.0,35.0,29.96,NNE,29,0.0,7.0,61,0.00,,,0.00,,2013-06-04 09:02:00,
2013-06-04 03:12:00,48.0,35.0,29.96,NNE,29,0.0,7.0,61,0.00,,,0.00,,2013-06-04 09:12:00,
2013-06-04 03:22:00,48.0,35.0,29.97,NNE,29,0.0,2.0,61,0.00,,,0.00,,2013-06-04 09:22:00,
2013-06-04 03:32:00,47.0,35.0,29.98,NNE,29,0.0,1.0,63,0.00,,,0.00,,2013-06-04 09:32:00,
2013-06-04 03:42:00,47.0,35.0,29.98,NNE,29,0.0,1.0,63,0.00,,,0.00,,2013-06-04 09:42:00,
2013-06-04 03:53:00,47.0,35.0,29.98,NNE,29,0.0,0.0,64,0.00,,,0.00,,2013-06-04 09:53:00,
2013-06-04 04:02:00,47.0,35.0,29.98,NNE,29,0.0,5.0,63,0.00,,,0.00,,2013-06-04 10:02:00,
2013-06-04 04:12:00,47.0,35.0,29.98,NNE,29,0.0,5.0,63,0.00,,,0.00,,2013-06-04 10:12:00,
2013-06-04 04:22:00,47.0,35.0,29.99,NNE,29,0.0,3.0,62,0.00,,,0.00,,2013-06-04 10:22:00,
2013-06-04 04:32:00,47.0,35.0,29.99,NNE,29,0.0,0.0,64,0.00,,,0.00,,2013-06-04 10:32:00,
2013-06-04 04:42:00,47.0,35.0,29.99,NNE,29,0.0,0.0,64,0.00,,,0.00,,2013-06-04 10:42:00,
2013-06-04 04:52:00,46.0,36.0,30.00,NNE,29,0.0,4.0,67,0.00,,,0.00,,2013-06-04 10:52:00,
2013-06-04 05:02:00,45.0,35.0,30.00,NNE,29,1.0,5.0,68,0.00,,,0.00,,2013-06-04 11:02:00,
2013-06-04 05:12:00,45.0,35.0,30.00,NNE,29,1.0,5.0,68,0.00,,,0.00,,2013-06-04 11:12:00,
2013-06-04 05:22:00,45.0,36.0,30.01,NNE,29,1.0,4.0,70,0.00,,,0.00,,2013-06-04 11:22:00,
2013-06-04 05:32:00,44.0,36.0,30.01,NNE,29,0.0,4.0,73,0.00,,,0.00,,2013-06-04 11:32:00,
2013-06-04 05:42:00,44.0,36.0,30.01,NNE,29,0.0,4.0,73,0.00,,,0.00,,2013-06-04 11:42:00,
2013-06-04 05:52:00,44.0,36.0,30.01,NNE,29,0.0,0.0,73,0.00,,,0.00,,2013-06-04 11:52:00,
2013-06-04 06:02:00,44.0,35.0,30.02,NNE,29,0.0,0.0,71,0.00,,,0.00,,2013-06-04 12:02:00,
2013-06-04 06:12:00,44.0,35.0,30.02,NNE,29,0.0,0.0,71,0.00,,,0.00,,2013-06-04 12:12:00,
2013-06-04 06:22:00,44.0,34.0,30.03,NNE,29,1.0,4.0,69,0.00,,,0.00,,2013-06-04 12:22:00,
2013-06-04 06:32:00,44.0,34.0,30.03,NNE,29,0.0,3.0,69,0.00,,,0.00,,2013-06-04 12:32:00,
2013-06-04 06:42:00,44.0,34.0,30.03,NNE,29,0.0,3.0,69,0.00,,,0.00,,2013-06-04 12:42:00,
2013-06-04 06:52:00,44.0,34.0,30.03,NNE,29,0.0,3.0,68,0.00,,,0.00,,2013-06-04 12:52:00,
2013-06-04 07:02:00,45.0,35.0,30.04,NNE,29,0.0,6.0,67,0.00,,,0.00,,2013-06-04 13:02:00,
2013-06-04 07:12:00,45.0,35.0,30.04,NNE,29,0.0,6.0,67,0.00,,,0.00,,2013-06-04 13:12:00,
2013-06-04 07:22:00,45.0,34.0,30.04,NNE,29,1.0,6.0,66,0.00,,,0.00,,2013-06-04 13:22:00,
2013-06-04 07:32:00,46.0,35.0,30.05,NNE,29,0.0,3.0,66,0.00,,,0.00,,2013-06-04 13:32:00,
2013-06-04 07:42:00,46.0,35.0,30.05,NNE,29,0.0,3.0,66,0.00,,,0.00,,2013-06-04 13:42:00,
2013-06-04 07:52:00,46.0,35.0,30.06,NNE,29,1.0,5.0,66,0.00,,,0.00,,2013-06-04 13:52:00,
2013-06-04 08:02:00,46.0,34.0,30.05,NNE,29,0.0,5.0,63,0.00,,,0.00,,2013-06-04 14:02:00,
2013-06-04 08:12:00,46.0,34.0,30.05,NNE,29,0.0,5.0,63,0.00,,,0.00,,2013-06-04 14:12:00,
2013-06-04 08:22:00,47.0,35.0,30.06,NNE,29,1.0,5.0,63,0.00,,,0.00,,2013-06-04 14:22:00,
2013-06-04 08:32:00,47.0,35.0,30.06,NNE,29,1.0,5.0,63,0.00,,,0.00,,2013-06-04 14:32:00,
2013-06-04 08:42:00,47.0,35.0,30.06,NNE,29,1.0,5.0,63,0.00,,,0.00,,2013-06-04 14:42:00,
2013-06-04 08:52:00,47.0,35.0,30.06,NNE,29,0.0,6.0,63,0.00,,,0.00,,2013-06-04 14:52:00,
2013-06-04 09:02:00,48.0,36.0,30.06,NNE,29,1.0,5.0,62,0.00,,,0.00,,2013-06-04 15:02:00,
2013-06-04 09:12:00,48.0,36.0,30.06,NNE,29,1.0,5.0,62,0.00,,,0.00,,2013-06-04 15:12:00,
2013-06-04 09:22:00,48.0,35.0,30.06,NNE,29,0.0,0.0,60,0.00,,,0.00,,2013-06-04 15:22:00,
2013-06-04 09:33:00,50.0,35.0,30.07,NNE,29,0.0,0.0,57,0.00,,,0.00,,2013-06-04 15:33:00,
2013-06-04 09:42:00,50.0,35.0,30.07,NNE,29,0.0,0.0,57,0.00,,,0.00,,2013-06-04 15:42:00,
2013-06-04 09:53:00,51.0,36.0,30.07,NNE,29,0.0,5.0,56,0.00,,,0.00,,2013-06-04 15:53:00,
2013-06-04 10:03:00,51.0,35.0,30.07,NNE,29,0.0,5.0,54,0.00,,,0.00,,2013-06-04 16:03:00,
2013-06-04 10:12:00,51.0,35.0,30.07,NNE,29,0.0,5.0,54,0.00,,,0.00,,2013-06-04 16:12:00,
2013-06-04 10:22:00,51.0,35.0,30.07,NNE,29,2.0,7.0,55,0.00,,,0.00,,2013-06-04 16:22:00,
2013-06-04 10:32:00,51.0,35.0,30.07,NNE,29,2.0,7.0,55,0.00,,,0.00,,2013-06-04 16:32:00,
2013-06-04 10:42:00,51.0,35.0,30.07,NNE,29,2.0,7.0,55,0.00,,,0.00,,2013-06-04 16:42:00,
2013-06-04 10:52:00,51.0,37.0,30.08,NNE,28,5.0,10.0,58,0.00,,,0.00,,2013-06-04 16:52:00,
2013-06-04 11:02:00,52.0,36.0,30.08,NNE,25,1.0,11.0,55,0.00,,,0.00,,2013-06-04 17:02:00,
2013-06-04 11:12:00,52.0,36.0,30.08,NNE,25,1.0,11.0,55,0.00,,,0.00,,2013-06-04 17:12:00,
2013-06-04 11:22:00,52.0,37.0,30.09,NNE,27,1.0,10.0,56,0.00,,,0.00,,2013-06-04 17:22:00,
2013-06-04 11:32:00,52.0,36.0,30.09,NNE,15,3.0,9.0,55,0.00,,,0.00,,2013-06-04 17:32:00,
2013-06-04 11:42:00,52.0,36.0,30.09,NNE,15,3.0,9.0,55,0.00,,,0.00,,2013-06-04 17:42:00,
2013-06-04 11:52:00,53.0,37.0,30.09,NNE,15,2.0,9.0,54,0.00,,,0.00,,2013-06-04 17:52:00,
2013-06-04 12:02:00,53.0,36.0,30.09,NNE,15,0.0,4.0,52,0.00,,,0.00,,2013-06-04 18:02:00,
2013-06-04 12:12:00,53.0,36.0,30.09,NNE,15,0.0,4.0,52,0.00,,,0.00,,2013-06-04 18:12:00,
2013-06-04 12:22:00,54.0,35.0,30.09,NNE,15,0.0,9.0,49,0.00,,,0.00,,2013-06-04 18:22:00,
2013-06-04 12:32:00,54.0,36.0,30.09,North,360,0.0,10.0,50,0.00,,,0.00,,2013-06-04 18:32:00,
2013-06-04 12:42:00,54.0,36.0,30.09,North,360,0.0,10.0,50,0.00,,,0.00,,2013-06-04 18:42:00,
2013-06-04 12:52:00,55.0,36.0,30.09,North,360,2.0,7.0,49,0.00,,,0.00,,2013-06-04 18:52:00,
2013-06-04 13:02:00,55.0,36.0,30.09,North,360,0.0,7.0,48,0.00,,,0.00,,2013-06-04 19:02:00,
2013-06-04 13:12:00,55.0,36.0,30.09,North,360,0.0,7.0,48,0.00,,,0.00,,2013-06-04 19:12:00,
2013-06-04 13:22:00,55.0,36.0,30.09,NW,304,6.0,12.0,48,0.00,,,0.00,,2013-06-04 19:22:00,
2013-06-04 13:32:00,55.0,37.0,30.10,NW,304,4.0,12.0,50,0.00,,,0.00,,2013-06-04 19:32:00,
2013-06-04 13:42:00,55.0,37.0,30.10,NW,304,4.0,12.0,50,0.00,,,0.00,,2013-06-04 19:42:00,
2013-06-04 13:52:00,54.0,36.0,30.10,NW,315,4.0,12.0,50,0.00,,,0.00,,2013-06-04 19:52:00,
2013-06-04 14:02:00,55.0,36.0,30.10,NW,315,2.0,8.0,48,0.00,,,0.00,,2013-06-04 20:02:00,
2013-06-04 14:12:00,55.0,36.0,30.10,NW,315,2.0,8.0,48,0.00,,,0.00,,2013-06-04 20:12:00,
2013-06-04 14:22:00,55.0,36.0,30.10,NW,315,2.0,13.0,49,0.00,,,0.00,,2013-06-04 20:22:00,
2013-06-04 14:32:00,56.0,37.0,30.10,NW,316,3.0,10.0,48,0.00,,,0.00,,2013-06-04 20:32:00,
2013-06-04 14:42:00,56.0,37.0,30.10,NW,316,3.0,10.0,48,0.00,,,0.00,,2013-06-04 20:42:00,
2013-06-04 14:52:00,56.0,37.0,30.10,NW,319,2.0,12.0,48,0.00,,,0.00,,2013-06-04 20:52:00,
2013-06-04 15:02:00,57.0,37.0,30.10,NW,321,4.0,9.0,47,0.00,,,0.00,,2013-06-04 21:02:00,
2013-06-04 15:12:00,57.0,37.0,30.10,NW,321,4.0,9.0,47,0.00,,,0.00,,2013-06-04 21:12:00,
2013-06-04 15:22:00,56.0,36.0,30.11,NW,321,3.0,10.0,47,0.00,,,0.00,,2013-06-04 21:22:00,
2013-06-04 15:33:00,56.0,36.0,30.11,NW,323,1.0,8.0,46,0.00,,,0.00,,2013-06-04 21:33:00,
2013-06-04 15:42:00,56.0,36.0,30.11,NW,323,1.0,8.0,46,0.00,,,0.00,,2013-06-04 21:42:00,
2013-06-04 15:52:00,56.0,36.0,30.11,NNW,329,0.0,11.0,47,0.00,,,0.00,,2013-06-04 21:52:00,
2013-06-04 16:02:00,57.0,35.0,30.11,NW,312,7.0,18.0,43,0.00,,,0.00,,2013-06-04 22:02:00,
2013-06-04 16:12:00,57.0,35.0,30.11,NW,312,7.0,18.0,43,0.00,,,0.00,,2013-06-04 22:12:00,
2013-06-04 16:22:00,57.0,35.0,30.12,NW,306,6.0,17.0,44,0.00,,,0.00,,2013-06-04 22:22:00,
2013-06-04 16:32:00,56.0,36.0,30.12,NNW,337,4.0,16.0,47,0.00,,,0.00,,2013-06-04 22:32:00,
2013-06-04 16:42:00,56.0,36.0,30.12,NNW,337,4.0,16.0,47,0.00,,,0.00,,2013-06-04 22:42:00,
2013-06-04 16:52:00,56.0,36.0,30.12,North,360,5.0,15.0,47,0.00,,,0.00,,2013-06-04 22:52:00,
2013-06-04 17:02:00,55.0,37.0,30.13,NNE,12,8.0,13.0,50,0.00,,,0.00,,2013-06-04 23:02:00,
2013-06-04 17:12:00,55.0,37.0,30.13,NNE,12,8.0,13.0,50,0.00,,,0.00,,2013-06-04 23:12:00,
2013-06-04 17:22:00,54.0,37.0,30.13,NNE,21,5.0,16.0,52,0.00,,,0.00,,2013-06-04 23:22:00,
2013-06-04 17:32:00,54.0,37.0,30.13,NNE,26,4.0,15.0,52,0.00,,,0.00,,2013-06-04 23:32:00,
2013-06-04 17:42:00,54.0,37.0,30.13,NNE,26,4.0,15.0,52,0.00,,,0.00,,2013-06-04 23:42:00,
2013-06-04 17:52:00,54.0,37.0,30.13,NNE,19,9.0,17.0,53,0.00,,,0.00,,2013-06-04 23:52:00,
2013-06-04 18:02:00,53.0,36.0,30.14,NNE,24,7.0,14.0,53,0.00,,,0.00,,2013-06-05 00:02:00,
2013-06-04 18:12:00,53.0,36.0,30.14,NNE,24,7.0,14.0,53,0.00,,,0.00,,2013-06-05 00:12:00,
2013-06-04 18:22:00,53.0,36.0,30.14,North,5,12.0,17.0,53,0.00,,,0.00,,2013-06-05 00:22:00,
2013-06-04 18:32:00,53.0,37.0,30.14,NNE,23,8.0,16.0,54,0.00,,,0.00,,2013-06-05 00:32:00,
2013-06-04 18:42:00,53.0,37.0,30.14,NNE,23,8.0,16.0,54,0.00,,,0.00,,2013-06-05 00:42:00,
2013-06-04 18:52:00,53.0,37.0,30.14,NNE,28,7.0,15.0,55,0.00,,,0.00,,2013-06-05 00:52:00,
2013-06-04 19:02:00,53.0,37.0,30.15,NNE,27,5.0,13.0,55,0.00,,,0.00,,2013-06-05 01:02:00,
2013-06-04 19:12:00,53.0,37.0,30.15,NNE,27,5.0,13.0,55,0.00,,,0.00,,2013-06-05 01:12:00,
2013-06-04 19:22:00,53.0,37.0,30.15,North,360,5.0,16.0,55,0.00,,,0.00,,2013-06-05 01:22:00,
2013-06-04 19:32:00,53.0,37.0,30.16,NNE,12,6.0,14.0,55,0.00,,,0.00,,2013-06-05 01:32:00,
2013-06-04 19:42:00,53.0,37.0,30.16,NNE,12,6.0,14.0,55,0.00,,,0.00,,2013-06-05 01:42:00,
2013-06-04 19:52:00,53.0,38.0,30.16,NNE,15,4.0,12.0,56,0.00,,,0.00,,2013-06-05 01:52:00,
2013-06-04 20:02:00,53.0,38.0,30.16,NNE,15,6.0,11.0,56,0.00,,,0.00,,2013-06-05 02:02:00,
2013-06-04 20:11:00,53.0,38.0,30.16,NNE,15,6.0,11.0,56,0.00,,,0.00,,2013-06-05 02:11:00,
2013-06-04 20:21:00,52.0,37.0,30.17,NNE,15,2.0,12.0,56,0.00,,,0.00,,2013-06-05 02:21:00,
2013-06-04 20:32:00,52.0,37.0,30.17,NNE,14,1.0,9.0,56,0.00,,,0.00,,2013-06-05 02:32:00,
2013-06-04 20:42:00,52.0,37.0,30.17,NNE,15,2.0,11.0,56,0.00,,,0.00,,2013-06-05 02:42:00,
2013-06-04 20:52:00,52.0,37.0,30.17,NNE,15,2.0,11.0,56,0.00,,,0.00,,2013-06-05 02:52:00,
2013-06-04 21:02:00,52.0,37.0,30.18,NNE,15,1.0,8.0,56,0.00,,,0.00,,2013-06-05 03:02:00,
2013-06-04 21:12:00,52.0,37.0,30.18,NNE,15,1.0,8.0,56,0.00,,,0.00,,2013-06-05 03:12:00,
2013-06-04 21:22:00,51.0,36.0,30.18,NNE,15,2.0,6.0,57,0.00,,,0.00,,2013-06-05 03:22:00,
2013-06-04 21:32:00,51.0,37.0,30.19,NNE,14,0.0,8.0,58,0.00,,,0.00,,2013-06-05 03:32:00,
2013-06-04 21:43:00,51.0,37.0,30.19,NNE,14,0.0,8.0,58,0.00,,,0.00,,2013-06-05 03:43:00,
2013-06-04 21:53:00,50.0,37.0,30.19,NNE,15,1.0,6.0,60,0.00,,,0.00,,2013-06-05 03:53:00,
2013-06-04 22:02:00,50.0,37.0,30.20,NNE,15,5.0,12.0,60,0.00,,,0.00,,2013-06-05 04:02:00,
2013-06-04 22:12:00,50.0,37.0,30.20,NNE,15,5.0,12.0,60,0.00,,,0.00,,2013-06-05 04:12:00,
2013-06-04 22:22:00,50.0,38.0,30.20,NNE,15,2.0,10.0,62,0.00,,,0.00,,2013-06-05 04:22:00,
2013-06-04 22:32:00,49.0,37.0,30.21,NNE,15,1.0,7.0,63,0.00,,,0.00,,2013-06-05 04:32:00,
2013-06-04 22:42:00,49.0,37.0,30.21,NNE,15,1.0,7.0,63,0.00,,,0.00,,2013-06-05 04:42:00,
2013-06-04 22:53:00,49.0,37.0,30.21,NNE,14,0.0,6.0,64,0.00,,,0.00,,2013-06-05 04:53:00,
2013-06-04 23:02:00,48.0,36.0,30.21,NNE,15,0.0,0.0,64,0.00,,,0.00,,2013-06-05 05:02:00,
2013-06-04 23:12:00,48.0,36.0,30.21,NNE,15,0.0,0.0,64,0.00,,,0.00,,2013-06-05 05:12:00,
2013-06-04 23:22:00,48.0,37.0,30.21,NNE,15,0.0,0.0,65,0.00,,,0.00,,2013-06-05 05:22:00,
2013-06-04 23:32:00,47.0,37.0,30.21,NNE,15,0.0,0.0,67,0.00,,,0.00,,2013-06-05 05:32:00,
2013-06-04 23:42:00,47.0,37.0,30.21,NNE,15,0.0,0.0,67,0.00,,,0.00,,2013-06-05 05:42:00,
2013-06-04 23:52:00,47.0,37.0,30.21,NNE,14,0.0,1.0,68,0.00,,,0.00,,2013-06-05 05:52:00,